Torna al catalogo

COSMOS 1275 DEB

AttivoPO
NORAD 42120·DEBRIS·🇷🇺 Russia

Lanciato Jun 4, 1981 da Plesetsk Cosmodrome

Loading…

Prossimi Passaggi (prossime 24 ore)

TLE

In scadenzaSource: Space-Track

Epoca: Sep 4, 2026, 06:15 UTC

1 42120U 81053QG  26247.26065382  .00000665  00000-0  79300-3 0  9998
2 42120  82.9316 348.7490 0191880 150.1898 211.0348 13.58374907632102

Traccia COSMOS 1275 DEB in tempo reale con AllMySat

Download on the App Store